Flag Weather past 2 weeks in Kykotsmovi Village, Hopi, Arizona, U.S.A.

Now
46 °F

Clear.


Feels Like: 43 °F
Forecast: 31 / 62 °F
Wind: 6 mph from Southwest

Location: Winslow Municipal Airport

Current Time: Nov 28, 2014 at 6:54:02 PM

Latest Report: Nov 28, 2014 at 5:56 PM


Visibility: 10 mi

Pressure: 30.07 "Hg

Humidity: 23%

Dew point: 10 °F

Location of Kykotsmovi Village, HopiLocation

Historic Weather in Kykotsmovi Village, Hopi — Graph

°F

Kykotsmovi Village, Hopi temperature yesterday

Maximum temperature yesterday: 63 °F (at 3:56 PM)
Minimum temperature yesterday: 20 °F (at 4:56 AM)
Average temperature yesterday: 39 °F

Past Weeks' High & Low Weather Summary

 TemperatureHumidityPressure
High70 °F (Nov 28, 2:56 PM)86% (Nov 14, 6:56 AM)30.60 "Hg (Nov 14, 6:56 AM)
Low12 °F (Nov 17, 4:56 AM)8% (Nov 23, 1:56 PM)29.77 "Hg (Nov 16, 1:56 AM)
Average39 °F37%30.19 "Hg
* Reported Nov 13 4:56 PM — Nov 28 4:56 PM, Kykotsmovi Village, Hopi, Weather by CustomWeather, © 2014

Note: Actual official high and low records may vary slightly from our data, if they occured in-between our weather recording intervals... More about our weather records

Advertising

Kykotsmovi Village, Hopi weather history for previous 24 hours

 ConditionsComfort  
Time TempWeatherWind HumidityBarometerVisibility
4:56 PM
Nov 28
66 °FSunny.No wind13%30.00 "Hg10 mi
3:56 PM69 °FSunny.No wind12%29.99 "Hg10 mi
2:56 PM70 °FSunny.No wind11%30.00 "Hg10 mi
1:56 PM67 °FSunny.No wind13%30.03 "Hg10 mi
12:56 PM62 °FSunny.3 mph17%30.09 "Hg10 mi
11:56 AM56 °FSunny.7 mph21%30.14 "Hg10 mi
10:56 AM50 °FSunny.7 mph26%30.19 "Hg10 mi
9:56 AM44 °FSunny.8 mph29%30.24 "Hg10 mi
8:56 AM36 °FSunny.9 mph38%30.27 "Hg10 mi
7:56 AM28 °FSunny.No wind51%30.29 "Hg10 mi
6:56 AM27 °FClear.No wind53%30.29 "Hg10 mi
5:56 AM22 °FClear.5 mph62%30.29 "Hg10 mi
4:56 AM23 °FClear.6 mph60%30.23 "Hg10 mi
3:56 AM24 °FClear.5 mph60%30.23 "Hg10 mi
2:56 AM26 °FClear.No wind60%30.24 "Hg10 mi
1:56 AM27 °FClear.3 mph53%30.24 "Hg10 mi
12:56 AM25 °FClear.No wind50%30.27 "Hg10 mi
11:56 PM
Nov 27
29 °FClear.3 mph49%30.28 "Hg10 mi
10:56 PM35 °FClear.5 mph40%30.28 "Hg10 mi
9:56 PM36 °FClear.No wind38%30.30 "Hg10 mi
8:56 PM38 °FClear.3 mph37%30.32 "Hg10 mi
7:56 PM40 °FClear.7 mph33%30.33 "Hg10 mi
6:56 PM38 °FClear.3 mph33%30.35 "Hg10 mi
Weather by CustomWeather, © 2014

See weather overviewHow to use our weather pages